| time (UTC) | temp C | wind direction | speed KPH | gust KPH | rain 1hr cm | rain 24hr cm | rain mn cm | humidity % | barometer mb |
| 20260507170321 | 15 | 81 | 0.0 | 1.6 | 0.00 | 0.00 | 0.03 | 67 | 1008.4 |
| 20260507165750 | 15 | 6 | 1.6 | 1.6 | 0.00 | 0.00 | 0.03 | 65 | 1008.8 |
| 20260507165135 | 15 | 233 | 3.2 | 3.2 | 0.00 | 0.00 | 0.03 | 68 | 1008.4 |
| 20260507163923 | 15 | 252 | 1.6 | 3.2 | 0.00 | 0.00 | 0.03 | 64 | 1008.8 |
| 20260507162722 | 15 | 343 | 1.6 | 1.6 | 0.00 | 0.00 | 0.03 | 65 | 1008.8 |
| 20260507162152 | 15 | 266 | 3.2 | 3.2 | 0.00 | 0.00 | 0.03 | 66 | 1008.8 |
| 20260507161555 | 14 | 171 | 1.6 | 1.6 | 0.00 | 0.00 | 0.03 | 65 | 1008.8 |
| 20260507160923 | 15 | 254 | 3.2 | 3.2 | 0.00 | 0.00 | 0.03 | 67 | 1008.8 |
| 20260507160346 | 14 | 135 | 3.2 | 4.8 | 0.00 | 0.00 | 0.03 | 70 | 1008.8 |
| 20260507155731 | 14 | 167 | 3.2 | 4.8 | 0.00 | 0.00 | 0.03 | 66 | 1008.8 |
| 20260507155123 | 14 | 258 | 6.4 | 6.4 | 0.00 | 0.00 | 0.03 | 67 | 1008.8 |
| 20260507154519 | 15 | 298 | 6.4 | 6.4 | 0.00 | 0.00 | 0.03 | 65 | 1008.8 |
| 20260507153911 | 15 | 142 | 1.6 | 1.6 | 0.00 | 0.00 | 0.03 | 65 | 1008.8 |
| 20260507153315 | 14 | 77 | 1.6 | 3.2 | 0.00 | 0.00 | 0.03 | 65 | 1008.8 |
| 20260507152750 | 14 | 7 | 1.6 | 3.2 | 0.00 | 0.00 | 0.03 | 66 | 1008.8 |
| 20260507151534 | 13 | 263 | 3.2 | 4.8 | 0.00 | 0.00 | 0.03 | 70 | 1008.8 |
| 20260507150347 | 13 | 304 | 6.4 | 9.7 | 0.00 | 0.00 | 0.03 | 74 | 1008.8 |
| 20260507145715 | 13 | 0 | 3.2 | 3.2 | 0.00 | 0.00 | 0.03 | 77 | 1009.1 |
| 20260507145111 | 13 | 254 | 3.2 | 3.2 | 0.00 | 0.00 | 0.03 | 77 | 1008.8 |
| 20260507144515 | 13 | 309 | 3.2 | 3.2 | 0.00 | 0.00 | 0.03 | 72 | 1009.1 |
| 20260507143939 | 13 | 317 | 3.2 | 4.8 | 0.00 | 0.00 | 0.03 | 79 | 1008.8 |
| 20260507143320 | 13 | 263 | 1.6 | 3.2 | 0.00 | 0.00 | 0.03 | 78 | 1008.8 |
| 20260507142123 | 12 | 304 | 1.6 | 1.6 | 0.00 | 0.00 | 0.03 | 85 | 1009.1 |
| 20260507141517 | 12 | 294 | 4.8 | 4.8 | 0.00 | 0.00 | 0.03 | 84 | 1009.1 |
| 20260507140926 | 12 | 298 | 3.2 | 3.2 | 0.00 | 0.00 | 0.03 | 85 | 1009.1 |
| 20260507140342 | 12 | 358 | 3.2 | 4.8 | 0.00 | 0.00 | 0.03 | 93 | 1009.1 |
| 20260507135143 | 11 | 246 | 3.2 | 3.2 | 0.00 | 0.00 | 0.03 | 98 | 1009.4 |
| 20260507134519 | 11 | 2 | 1.6 | 1.6 | 0.00 | 0.00 | 0.03 | 99 | 1009.1 |
| 20260507133319 | 11 | 245 | 1.6 | 1.6 | 0.00 | 0.00 | 0.03 | 99 | 1009.4 |
| 20260507132743 | 11 | 4 | 3.2 | 3.2 | 0.00 | 0.00 | 0.03 | 99 | 1009.4 |
| 20260507132122 | 11 | 129 | 1.6 | 1.6 | 0.00 | 0.00 | 0.03 | 99 | 1009.8 |
| 20260507130911 | 10 | 103 | 0.0 | 1.6 | 0.00 | 0.00 | 0.03 | 99 | 1009.4 |
| 20260507130311 | 11 | 115 | 0.0 | 0.0 | 0.00 | 0.00 | 0.03 | 99 | 1009.8 |
| 20260507124550 | 11 | 115 | 0.0 | 0.0 | 0.00 | 0.00 | 0.03 | 99 | 1009.4 |
| 20260507123943 | 11 | 116 | 0.0 | 0.0 | 0.00 | 0.00 | 0.03 | 99 | 1009.4 |
| 20260507123343 | 10 | 116 | 0.0 | 0.0 | 0.00 | 0.00 | 0.03 | 99 | 1009.4 |
| 20260507122748 | 10 | 116 | 0.0 | 0.0 | 0.00 | 0.00 | 0.03 | 99 | 1009.4 |
| 20260507122127 | 10 | 115 | 0.0 | 0.0 | 0.00 | 0.00 | 0.03 | 99 | 1009.4 |
| 20260507120340 | 10 | 104 | 0.0 | 0.0 | 0.00 | 0.00 | 0.03 | 99 | 1009.1 |
| 20260507115712 | 10 | 104 | 0.0 | 0.0 | 0.00 | 0.00 | 0.03 | 99 | 1009.4 |
| 20260507115146 | 10 | 104 | 0.0 | 0.0 | 0.00 | 0.00 | 0.03 | 99 | 1009.4 |
| 20260507114527 | 10 | 104 | 0.0 | 0.0 | 0.00 | 0.00 | 0.03 | 99 | 1009.1 |
| 20260507113916 | 10 | 104 | 0.0 | 0.0 | 0.00 | 0.00 | 0.03 | 99 | 1009.1 |
| 20260507113326 | 10 | 104 | 0.0 | 0.0 | 0.00 | 0.00 | 0.03 | 99 | 1009.4 |
| 20260507112752 | 10 | 105 | 0.0 | 0.0 | 0.00 | 0.00 | 0.03 | 99 | 1009.4 |
| 20260507111513 | 10 | 105 | 0.0 | 0.0 | 0.00 | 0.00 | 0.03 | 99 | 1009.4 |
| 20260507110940 | 10 | 105 | 0.0 | 0.0 | 0.00 | 0.00 | 0.03 | 99 | 1009.1 |
| 20260507110320 | 10 | 106 | 0.0 | 0.0 | 0.00 | 0.00 | 0.03 | 99 | 1008.8 |
| 20260507105718 | 10 | 106 | 0.0 | 0.0 | 0.00 | 0.00 | 0.03 | 99 | 1009.4 |
| 20260507105143 | 10 | 106 | 0.0 | 0.0 | 0.00 | 0.00 | 0.03 | 99 | 1008.8 |
| 20260507104546 | 10 | 106 | 0.0 | 0.0 | 0.00 | 0.00 | 0.03 | 99 | 1009.1 |
| 20260507103320 | 10 | 105 | 0.0 | 0.0 | 0.00 | 0.00 | 0.03 | 99 | 1009.1 |
| 20260507102729 | 10 | 105 | 0.0 | 0.0 | 0.00 | 0.00 | 0.03 | 99 | 1008.8 |
| 20260507101525 | 10 | 105 | 0.0 | 0.0 | 0.00 | 0.00 | 0.03 | 99 | 1008.8 |
| 20260507100912 | 10 | 105 | 0.0 | 0.0 | 0.00 | 0.00 | 0.03 | 99 | 1008.4 |
| 20260507100332 | 10 | 105 | 0.0 | 0.0 | 0.00 | 0.00 | 0.03 | 99 | 1008.4 |
| 20260507095740 | 10 | 105 | 0.0 | 0.0 | 0.00 | 0.00 | 0.03 | 99 | 1008.4 |
| 20260507095110 | 10 | 105 | 0.0 | 0.0 | 0.00 | 0.00 | 0.03 | 99 | 1008.1 |
| 20260507093930 | 10 | 107 | 0.0 | 0.0 | 0.00 | 0.00 | 0.03 | 99 | 1008.1 |
| 20260507093344 | 10 | 113 | 0.0 | 0.0 | 0.00 | 0.00 | 0.03 | 99 | 1008.8 |
| 20260507092744 | 10 | 159 | 0.0 | 0.0 | 0.00 | 0.00 | 0.03 | 99 | 1008.8 |
| 20260507092130 | 10 | 159 | 0.0 | 0.0 | 0.00 | 0.00 | 0.03 | 99 | 1008.8 |
| 20260507091510 | 10 | 158 | 0.0 | 0.0 | 0.00 | 0.00 | 0.03 | 99 | 1008.8 |
| 20260507090940 | 10 | 158 | 0.0 | 0.0 | 0.00 | 0.00 | 0.03 | 99 | 1008.8 |
| 20260507090318 | 10 | 158 | 0.0 | 0.0 | 0.00 | 0.00 | 0.03 | 99 | 1008.8 |
| 20260507085715 | 10 | 158 | 0.0 | 0.0 | 0.00 | 0.00 | 0.03 | 99 | 1008.8 |
| 20260507085109 | 10 | 158 | 0.0 | 0.0 | 0.00 | 0.00 | 0.03 | 99 | 1008.8 |
| 20260507084541 | 10 | 158 | 0.0 | 0.0 | 0.00 | 0.00 | 0.03 | 99 | 1008.8 |
| 20260507083925 | 10 | 160 | 0.0 | 0.0 | 0.00 | 0.00 | 0.03 | 99 | 1008.8 |
| 20260507083327 | 10 | 160 | 0.0 | 0.0 | 0.00 | 0.00 | 0.03 | 99 | 1008.4 |
| 20260507082121 | 10 | 92 | 0.0 | 0.0 | 0.00 | 0.00 | 0.03 | 99 | 1008.1 |
| 20260507081530 | 10 | 108 | 0.0 | 0.0 | 0.00 | 0.00 | 0.03 | 99 | 1008.1 |
| 20260507080917 | 10 | 107 | 0.0 | 0.0 | 0.00 | 0.00 | 0.03 | 99 | 1008.4 |
| 20260507080337 | 10 | 107 | 0.0 | 0.0 | 0.00 | 0.00 | 0.03 | 99 | 1008.4 |
| 20260507075716 | 10 | 108 | 0.0 | 0.0 | 0.00 | 0.00 | 0.03 | 99 | 1008.8 |
| 20260507075135 | 10 | 108 | 0.0 | 0.0 | 0.00 | 0.00 | 0.03 | 99 | 1008.4 |
| 20260507074541 | 10 | 107 | 0.0 | 0.0 | 0.00 | 0.00 | 0.03 | 99 | 1008.4 |
| 20260507073952 | 10 | 73 | 0.0 | 0.0 | 0.00 | 0.00 | 0.03 | 99 | 1008.8 |
| 20260507073328 | 10 | 147 | 0.0 | 0.0 | 0.00 | 0.00 | 0.03 | 99 | 1008.8 |
| 20260507072748 | 10 | 151 | 0.0 | 0.0 | 0.00 | 0.00 | 0.03 | 99 | 1008.8 |
| 20260507072116 | 10 | 151 | 0.0 | 0.0 | 0.00 | 0.00 | 0.03 | 99 | 1008.8 |
| 20260507071537 | 10 | 151 | 0.0 | 0.0 | 0.00 | 0.00 | 0.03 | 99 | 1008.8 |
| 20260507070310 | 10 | 111 | 0.0 | 0.0 | 0.00 | 0.00 | 0.03 | 99 | 1008.8 |
| 20260507065753 | 10 | 122 | 0.0 | 0.0 | 0.00 | 0.00 | 0.03 | 99 | 1008.8 |
| 20260507064514 | 10 | 146 | 0.0 | 0.0 | 0.00 | 0.00 | 0.03 | 99 | 1008.8 |
| 20260507063913 | 10 | 142 | 0.0 | 0.0 | 0.00 | 0.00 | 0.03 | 99 | 1008.8 |
| 20260507063347 | 10 | 135 | 0.0 | 0.0 | 0.00 | 0.00 | 0.03 | 99 | 1008.8 |
| 20260507062716 | 10 | 135 | 0.0 | 0.0 | 0.00 | 0.00 | 0.03 | 99 | 1008.8 |
| 20260507062130 | 10 | 135 | 0.0 | 0.0 | 0.00 | 0.00 | 0.03 | 99 | 1008.8 |
| 20260507061517 | 10 | 136 | 0.0 | 0.0 | 0.00 | 0.00 | 0.03 | 99 | 1008.8 |
| 20260507060928 | 11 | 154 | 0.0 | 0.0 | 0.00 | 0.00 | 0.03 | 99 | 1008.8 |
| 20260507060317 | 10 | 166 | 0.0 | 0.0 | 0.00 | 0.00 | 0.03 | 99 | 1009.1 |
| 20260507055734 | 10 | 129 | 0.0 | 0.0 | 0.00 | 0.00 | 0.03 | 99 | 1008.8 |
| 20260507055110 | 10 | 119 | 0.0 | 0.0 | 0.00 | 0.00 | 0.03 | 99 | 1009.1 |
| 20260507053926 | 11 | 116 | 0.0 | 0.0 | 0.00 | 0.00 | 0.03 | 99 | 1008.8 |
| 20260507052712 | 11 | 114 | 0.0 | 0.0 | 0.00 | 0.00 | 0.03 | 99 | 1009.1 |
| 20260507052147 | 11 | 116 | 0.0 | 0.0 | 0.00 | 0.00 | 0.03 | 99 | 1008.8 |
| 20260507051524 | 11 | 109 | 0.0 | 0.0 | 0.00 | 0.00 | 0.03 | 99 | 1008.8 |
| 20260507050911 | 11 | 111 | 0.0 | 1.6 | 0.00 | 0.00 | 0.03 | 99 | 1008.8 |
| 20260507050342 | 11 | 159 | 1.6 | 1.6 | 0.00 | 0.00 | 0.03 | 99 | 1009.1 |
| 20260507045750 | 11 | 335 | 8.0 | 11.3 | 0.00 | 0.00 | 0.00 | 99 | 1008.8 |
| 20260507045142 | 12 | 0 | 4.8 | 4.8 | 0.00 | 0.00 | 0.00 | 99 | 1008.8 |
| 20260507044539 | 12 | 255 | 1.6 | 3.2 | 0.00 | 0.00 | 0.00 | 99 | 1008.8 |
| 20260507043954 | 12 | 95 | 0.0 | 0.0 | 0.00 | 0.00 | 0.00 | 99 | 1008.8 |
| 20260507041541 | 12 | 124 | 0.0 | 0.0 | 0.00 | 0.00 | 0.00 | 99 | 1008.8 |
| 20260507040932 | 12 | 124 | 0.0 | 0.0 | 0.00 | 0.00 | 0.00 | 99 | 1008.8 |
| 20260507040332 | 12 | 134 | 0.0 | 0.0 | 0.00 | 0.00 | 0.00 | 99 | 1008.8 |
| 20260507035713 | 12 | 135 | 0.0 | 0.0 | 0.00 | 0.00 | 1.70 | 99 | 1008.8 |
| 20260507035145 | 12 | 136 | 0.0 | 0.0 | 0.00 | 0.00 | 1.70 | 99 | 1009.1 |
| 20260507034518 | 12 | 147 | 0.0 | 0.0 | 0.00 | 0.00 | 1.70 | 99 | 1008.8 |
| 20260507033911 | 12 | 160 | 0.0 | 0.0 | 0.00 | 0.00 | 1.70 | 99 | 1009.1 |
| 20260507033343 | 12 | 148 | 0.0 | 0.0 | 0.00 | 0.00 | 1.70 | 99 | 1008.4 |
| 20260507032121 | 12 | 148 | 0.0 | 0.0 | 0.00 | 0.00 | 1.70 | 99 | 1008.4 |
| 20260507030950 | 12 | 120 | 0.0 | 0.0 | 0.00 | 0.00 | 1.70 | 99 | 1008.4 |
| 20260507030351 | 12 | 102 | 0.0 | 0.0 | 0.00 | 0.00 | 1.70 | 99 | 1008.4 |
| 20260507025726 | 12 | 93 | 1.6 | 1.6 | 0.00 | 0.00 | 1.70 | 99 | 1008.1 |
| 20260507024540 | 12 | 120 | 0.0 | 0.0 | 0.00 | 0.00 | 1.70 | 99 | 1008.4 |
| 20260507023911 | 12 | 120 | 0.0 | 0.0 | 0.00 | 0.00 | 1.70 | 99 | 1008.8 |
| 20260507023354 | 12 | 120 | 0.0 | 0.0 | 0.00 | 0.00 | 1.70 | 99 | 1008.8 |
| 20260507022710 | 12 | 119 | 0.0 | 0.0 | 0.00 | 0.00 | 1.70 | 99 | 1008.8 |
| 20260507022117 | 12 | 53 | 1.6 | 1.6 | 0.00 | 0.00 | 1.70 | 99 | 1008.8 |
| 20260507021541 | 12 | 116 | 0.0 | 0.0 | 0.00 | 0.00 | 1.70 | 99 | 1008.4 |
| 20260507020939 | 12 | 20 | 1.6 | 1.6 | 0.00 | 0.00 | 1.70 | 99 | 1008.8 |
| 20260507020318 | 12 | 149 | 0.0 | 0.0 | 0.00 | 0.00 | 1.70 | 99 | 1008.4 |
| 20260507015728 | 12 | 122 | 4.8 | 4.8 | 0.00 | 0.00 | 1.70 | 99 | 1009.1 |
| 20260507015145 | 12 | 296 | 0.0 | 0.0 | 0.00 | 0.00 | 1.70 | 99 | 1009.8 |
| 20260507014513 | 12 | 184 | 0.0 | 0.0 | 0.00 | 0.00 | 1.70 | 99 | 1009.1 |
| 20260507013930 | 12 | 243 | 1.6 | 1.6 | 0.00 | 0.00 | 1.70 | 99 | 1008.4 |
| 20260507013354 | 12 | 143 | 0.0 | 0.0 | 0.00 | 0.00 | 1.70 | 99 | 1008.4 |
| 20260507012144 | 12 | 136 | 0.0 | 0.0 | 0.00 | 0.00 | 1.70 | 99 | 1008.8 |
| 20260507011532 | 12 | 107 | 0.0 | 0.0 | 0.00 | 0.00 | 1.70 | 99 | 1008.1 |
| 20260507010953 | 12 | 40 | 3.2 | 3.2 | 0.00 | 0.00 | 1.70 | 99 | 1007.4 |
| 20260507010329 | 12 | 149 | 0.0 | 0.0 | 0.00 | 0.00 | 1.70 | 99 | 1007.4 |
| 20260507005135 | 12 | 140 | 0.0 | 0.0 | 0.00 | 0.00 | 1.70 | 99 | 1007.7 |
| 20260507004543 | 12 | 139 | 1.6 | 1.6 | 0.00 | 0.00 | 1.70 | 99 | 1007.7 |
| 20260507003345 | 12 | 116 | 0.0 | 0.0 | 0.00 | 0.00 | 1.70 | 99 | 1008.1 |
| 20260507002728 | 12 | 205 | 1.6 | 1.6 | 0.00 | 0.00 | 1.70 | 99 | 1007.4 |
| 20260507001548 | 12 | 152 | 0.0 | 0.0 | 0.00 | 0.00 | 1.70 | 99 | 1006.7 |
| 20260507000314 | 12 | 148 | 0.0 | 0.0 | 0.00 | 0.00 | 1.70 | 99 | 1007.7 |
| 20260506235729 | 12 | 148 | 0.0 | 0.0 | 0.00 | 0.00 | 1.70 | 99 | 1007.7 |
| 20260506235133 | 12 | 109 | 0.0 | 0.0 | 0.00 | 0.00 | 1.70 | 99 | 1007.7 |
| 20260506234523 | 12 | 96 | 1.6 | 1.6 | 0.00 | 0.00 | 1.70 | 99 | 1007.7 |
| 20260506233939 | 12 | 204 | 0.0 | 1.6 | 0.00 | 0.00 | 1.70 | 99 | 1007.4 |
| 20260506233351 | 13 | 156 | 0.0 | 0.0 | 0.00 | 0.00 | 1.68 | 99 | 1007.1 |
| 20260506232743 | 13 | 148 | 0.0 | 0.0 | 0.00 | 0.00 | 1.68 | 99 | 1007.1 |
| 20260506232149 | 12 | 124 | 0.0 | 0.0 | 0.00 | 0.00 | 1.68 | 99 | 1007.1 |
| 20260506231525 | 12 | 124 | 0.0 | 0.0 | 0.00 | 0.00 | 1.68 | 99 | 1007.1 |
| 20260506230932 | 12 | 122 | 1.6 | 1.6 | 0.00 | 0.00 | 1.68 | 99 | 1007.4 |
| 20260506230329 | 12 | 127 | 0.0 | 1.6 | 0.00 | 0.00 | 1.68 | 99 | 1007.4 |
| 20260506225711 | 12 | 126 | 0.0 | 0.0 | 0.00 | 0.00 | 1.68 | 99 | 1007.7 |
| 20260506225110 | 12 | 124 | 0.0 | 1.6 | 0.00 | 0.00 | 1.68 | 99 | 1007.7 |
| 20260506224517 | 12 | 113 | 0.0 | 0.0 | 0.00 | 0.00 | 1.60 | 99 | 1007.7 |
| 20260506223932 | 12 | 113 | 0.0 | 1.6 | 0.00 | 0.00 | 1.60 | 99 | 1007.7 |
| 20260506223327 | 12 | 113 | 0.0 | 0.0 | 0.00 | 0.00 | 1.60 | 99 | 1008.1 |
| 20260506222722 | 12 | 113 | 0.0 | 0.0 | 0.00 | 0.00 | 1.57 | 99 | 1007.7 |
| 20260506222144 | 12 | 113 | 0.0 | 1.6 | 0.00 | 0.00 | 1.57 | 99 | 1007.4 |
| 20260506221515 | 12 | 113 | 0.0 | 0.0 | 0.00 | 0.00 | 1.57 | 99 | 1007.7 |
| 20260506220918 | 12 | 112 | 0.0 | 1.6 | 0.00 | 0.00 | 1.55 | 99 | 1007.4 |
| 20260506220343 | 12 | 113 | 0.0 | 0.0 | 0.00 | 0.00 | 1.52 | 99 | 1007.1 |
| 20260506215738 | 12 | 112 | 0.0 | 0.0 | 0.00 | 0.00 | 1.50 | 99 | 1007.1 |
| 20260506215141 | 13 | 112 | 0.0 | 1.6 | 0.00 | 0.00 | 1.40 | 99 | 1007.1 |
| 20260506214549 | 13 | 113 | 0.0 | 0.0 | 0.00 | 0.00 | 1.40 | 99 | 1007.4 |
| 20260506213317 | 13 | 131 | 0.0 | 0.0 | 0.00 | 0.00 | 1.40 | 99 | 1007.4 |
| 20260506212713 | 12 | 152 | 0.0 | 0.0 | 0.00 | 0.00 | 1.40 | 99 | 1007.1 |
| 20260506212127 | 12 | 158 | 3.2 | 3.2 | 0.00 | 0.00 | 1.37 | 99 | 1007.1 |
| 20260506210929 | 13 | 139 | 0.0 | 0.0 | 0.00 | 0.00 | 1.37 | 99 | 1007.1 |
| 20260506210347 | 12 | 124 | 0.0 | 1.6 | 0.00 | 0.00 | 1.37 | 99 | 1007.1 |
| 20260506204531 | 12 | 148 | 0.0 | 0.0 | 0.00 | 0.00 | 1.37 | 99 | 1007.4 |
| 20260506203311 | 12 | 157 | 0.0 | 0.0 | 0.00 | 0.00 | 1.37 | 99 | 1007.1 |
| 20260506202713 | 12 | 182 | 0.0 | 1.6 | 0.00 | 0.00 | 1.37 | 99 | 1007.1 |
| 20260506201533 | 12 | 71 | 1.6 | 1.6 | 0.00 | 0.00 | 1.37 | 99 | 1007.1 |
| 20260506200314 | 12 | 250 | 1.6 | 1.6 | 0.00 | 0.00 | 1.35 | 99 | 1007.4 |
| 20260506195752 | 12 | 148 | 1.6 | 1.6 | 0.00 | 0.00 | 1.35 | 99 | 1007.4 |
| 20260506194536 | 13 | 157 | 0.0 | 1.6 | 0.00 | 0.00 | 1.35 | 99 | 1007.1 |
| 20260506193953 | 13 | 115 | 0.0 | 1.6 | 0.00 | 0.00 | 1.35 | 99 | 1007.1 |
| 20260506193353 | 13 | 282 | 3.2 | 3.2 | 0.00 | 0.00 | 1.35 | 99 | 1007.1 |
| 20260506192743 | 13 | 267 | 3.2 | 3.2 | 0.00 | 0.00 | 1.35 | 99 | 1006.7 |
| 20260506192132 | 13 | 178 | 0.0 | 1.6 | 0.00 | 0.00 | 1.35 | 99 | 1006.7 |
| 20260506191543 | 13 | 190 | 0.0 | 1.6 | 0.00 | 0.00 | 1.35 | 99 | 1006.7 |
| 20260506190913 | 13 | 154 | 0.0 | 0.0 | 0.00 | 0.00 | 1.35 | 99 | 1006.7 |
| 20260506190340 | 13 | 147 | 0.0 | 0.0 | 0.00 | 0.00 | 1.35 | 99 | 1006.7 |
| 20260506185719 | 12 | 148 | 1.6 | 1.6 | 0.00 | 0.00 | 1.35 | 99 | 1006.4 |
| 20260506184536 | 13 | 214 | 1.6 | 1.6 | 0.00 | 0.00 | 1.35 | 99 | 1006.4 |
| 20260506183920 | 12 | 269 | 3.2 | 3.2 | 0.00 | 0.00 | 1.35 | 99 | 1006.7 |
| 20260506183330 | 13 | 112 | 0.0 | 1.6 | 0.00 | 0.00 | 1.35 | 99 | 1006.7 |
| 20260506182741 | 13 | 145 | 3.2 | 3.2 | 0.00 | 0.00 | 1.35 | 99 | 1006.7 |
| 20260506181541 | 13 | 148 | 0.0 | 0.0 | 0.00 | 0.00 | 1.35 | 99 | 1006.0 |
| 20260506180936 | 13 | 165 | 0.0 | 0.0 | 0.00 | 0.00 | 1.35 | 99 | 1006.7 |
| 20260506180354 | 13 | 173 | 1.6 | 1.6 | 0.00 | 0.00 | 1.35 | 99 | 1006.0 |
| 20260506175748 | 13 | 169 | 3.2 | 4.8 | 0.00 | 0.00 | 1.35 | 99 | 1006.4 |
| 20260506175127 | 13 | 159 | 0.0 | 1.6 | 0.00 | 0.00 | 1.35 | 99 | 1006.4 |
| 20260506174531 | 13 | 188 | 0.0 | 1.6 | 0.00 | 0.00 | 1.32 | 99 | 1006.4 |
| 20260506173943 | 13 | 185 | 3.2 | 3.2 | 0.00 | 0.00 | 1.32 | 99 | 1006.4 |
| 20260506173318 | 13 | 254 | 1.6 | 1.6 | 0.00 | 0.00 | 1.32 | 99 | 1006.0 |
| 20260506172712 | 13 | 124 | 3.2 | 3.2 | 0.00 | 0.00 | 1.32 | 99 | 1006.4 |
| 20260506172141 | 13 | 130 | 1.6 | 3.2 | 0.00 | 0.00 | 1.32 | 99 | 1006.7 |
| 20260506170953 | 13 | 6 | 4.8 | 4.8 | 0.00 | 0.00 | 1.27 | 99 | 1006.0 |